Simultaneous Nadir Overpasses (SNOs) Predictions

Prediction of SNOs between GOES-14 and NOAA-20 Satellite Orbit:

Table of predicted SNOs for the next 14.0 days since TLE Epoch: 3/6/2021
Index Date Time (GOES-14) GOES-14 Lat,Lon NOAA-20 Lat,Lon Distance(km) Time Diff (sec)
1 03/06/2021 20:08:14 -0.05,-104.25 0.65,-101.22 345.75 80
2 03/08/2021 08:30:01 0.06,-104.41 0.54,-106.49 237.28 80
3 03/09/2021 08:13:57 0.06,-104.41 -0.50,-101.96 280.23 80
4 03/10/2021 20:35:52 -0.07,-104.28 -0.73,-107.25 337.61 80
5 03/11/2021 20:14:27 -0.06,-104.28 0.31,-102.72 178.77 80
6 03/13/2021 08:36:15 0.07,-104.42 0.88,-107.98 405.88 80
7 03/14/2021 08:20:10 0.07,-104.44 -0.16,-103.45 112.14 80
8 03/16/2021 20:20:41 -0.07,-104.33 -0.02,-104.22 14.08 80
9 03/19/2021 08:23:44 0.07,-104.47 0.17,-104.95 55.01 80
